Date String (YYYY-MM-DD hh:mm:ss) UTC,Instrument flags,Ambient pressure (hPa),Sample flow (lpm),Bypass flow (lpm),Sample temperature (°C),Ambient temperature (°C),ASC tube jacket temperature (°C),LED temperature (°C),Box temperature (°C),Sample RH (%),Span deviation,Mass concentration (μg/m³),Mass concentration (μg/m³),Mass concentration (μg/m³)
DateTimeUTC,F1_M11,P_M11,Q1_M11,Q2_M11,T1_M11,T2_M11,T3_M11,T4_M11,T5_M11,U1_M11,ZSPAN_M11,X2_M11,X0_M11,X1_M11
2021-12-12 21:00:00,,0819.2,5.01,0.00,26.3,25.6,00.0,35.1,28.2,04.7,0000.0,0000.70,0002.07,0000.40
2021-12-12 21:01:00,,0819.2,4.99,0.00,26.3,25.6,00.0,35.2,28.2,04.7,0000.0,0000.68,0002.05,0000.39
2021-12-12 21:02:00,,0819.3,4.99,0.00,26.4,25.7,00.0,35.2,28.2,04.7,0000.0,0000.67,0003.13,0000.39
2021-12-12 21:03:00,,0819.1,5.01,0.00,26.4,25.7,00.0,35.2,28.2,04.7,0000.0,0000.67,0003.14,0000.39
2021-12-12 21:04:00,,0819.1,5.00,0.00,26.4,25.7,00.0,35.2,28.2,04.6,0000.0,0000.64,0002.85,0000.38
2021-12-12 21:05:00,,0819.3,5.01,0.00,26.4,25.7,00.0,35.2,28.2,04.7,0000.0,0000.67,0002.55,0000.37
2021-12-12 21:06:00,,0819.3,4.99,0.00,26.4,25.7,00.0,35.3,28.3,04.7,0000.0,0000.66,0002.82,0000.36
2021-12-12 21:07:00,,0819.2,5.01,0.00,26.4,25.7,00.0,35.3,28.3,04.6,0000.0,0000.64,0003.02,0000.35
2021-12-12 21:08:00,,0819.3,5.00,0.00,26.5,25.7,00.0,35.3,28.3,04.6,0000.0,0000.64,0002.95,0000.35
2021-12-12 21:09:00,,0819.3,4.99,0.00,26.5,25.7,00.0,35.3,28.3,04.5,0000.0,0000.62,0003.29,0000.35
2021-12-12 21:10:00,,0819.2,5.00,0.00,26.5,25.8,00.0,35.3,28.3,04.5,0000.0,0000.63,0004.73,0000.36
2021-12-12 21:11:00,,0819.2,5.00,0.00,26.5,25.8,00.0,35.3,28.3,04.6,0000.0,0000.62,0004.73,0000.36
2021-12-12 21:12:00,,0819.3,5.01,0.00,26.5,25.8,00.0,35.3,28.4,04.6,0000.0,0000.64,0005.77,0000.36
2021-12-12 21:13:00,,0819.2,4.99,0.00,26.6,25.8,00.0,35.4,28.4,04.6,0000.0,0000.67,0005.33,0000.37
2021-12-12 21:14:00,,0819.3,5.01,0.00,26.5,25.8,00.0,35.4,28.4,04.6,0000.0,0000.66,0005.43,0000.36
2021-12-12 21:15:00,,0819.4,4.99,0.00,26.6,25.8,00.0,35.4,28.4,04.7,0000.0,0000.65,0005.49,0000.36
2021-12-12 21:16:00,,0819.6,5.01,0.00,26.6,25.8,00.0,35.4,28.4,04.5,0000.0,0000.58,0005.29,0000.37
2021-12-12 21:17:00,,0819.5,4.99,0.00,26.6,25.8,00.0,35.4,28.4,04.6,0000.0,0000.56,0004.91,0000.37
2021-12-12 21:18:00,,0819.5,5.00,0.00,26.6,25.8,00.0,35.4,28.5,04.6,0000.0,0000.56,0004.76,0000.37
2021-12-12 21:19:00,,0819.5,5.00,0.00,26.6,25.9,00.0,35.5,28.5,04.6,0000.0,0000.57,0004.80,0000.38
2021-12-12 21:20:00,,0819.5,5.00,0.00,26.7,25.9,00.0,35.5,28.5,04.5,0000.0,0000.56,0004.22,0000.38
2021-12-12 21:21:00,,0819.4,5.00,0.00,26.7,25.9,00.0,35.5,28.5,04.5,0000.0,0000.56,0003.02,0000.37
2021-12-12 21:22:00,,0819.5,5.02,0.00,26.7,25.9,00.0,35.5,28.5,04.5,0000.0,0000.55,0003.20,0000.36
2021-12-12 21:23:00,,0819.5,4.99,0.00,26.7,25.9,00.0,35.5,28.5,04.5,0000.0,0000.53,0002.34,0000.36
2021-12-12 21:24:00,,0819.6,4.99,0.00,26.7,25.9,00.0,35.5,28.5,04.6,0000.0,0000.51,0001.89,0000.36
2021-12-12 21:25:00,,0819.5,5.01,0.00,26.7,26.0,00.0,35.6,28.6,04.5,0000.0,0000.52,0001.51,0000.36
2021-12-12 21:26:00,,0819.5,5.00,0.00,26.7,26.0,00.0,35.6,28.6,04.5,0000.0,0000.53,0001.46,0000.36
2021-12-12 21:27:00,,0819.6,5.00,0.00,26.8,26.0,00.0,35.6,28.6,04.5,0000.0,0000.52,0001.45,0000.36
2021-12-12 21:28:00,,0819.5,5.01,0.00,26.8,26.0,00.0,35.6,28.6,04.5,0000.0,0000.53,0001.49,0000.37
2021-12-12 21:29:00,,0819.7,4.98,0.00,26.8,26.0,00.0,35.6,28.6,04.6,0000.0,0000.54,0001.44,0000.37
2021-12-12 21:30:00,,0819.5,5.01,0.00,26.8,26.0,00.0,35.6,28.6,04.6,0000.0,0000.53,0001.39,0000.37
2021-12-12 21:31:00,,0819.5,4.99,0.00,26.8,26.0,00.0,35.7,28.6,04.5,0000.0,0000.54,0001.41,0000.37
2021-12-12 21:32:00,,0819.6,5.01,0.00,26.8,26.1,00.0,35.7,28.7,04.5,0000.0,0000.56,0001.44,0000.37
2021-12-12 21:33:00,,0819.6,5.01,0.00,26.8,26.1,00.0,35.7,28.7,04.5,0000.0,0000.57,0001.10,0000.37
2021-12-12 21:34:00,,0819.7,4.99,0.00,26.8,26.1,00.0,35.7,28.7,04.5,0000.0,0000.57,0000.98,0000.37
2021-12-12 21:35:00,,0819.6,5.01,0.00,26.9,26.1,00.0,35.7,28.7,04.5,0000.0,0000.57,0001.19,0000.37
2021-12-12 21:36:00,,0819.6,5.00,0.00,26.9,26.1,00.0,35.7,28.7,04.5,0000.0,0000.59,0002.44,0000.37
2021-12-12 21:37:00,,0819.7,5.00,0.00,26.9,26.1,00.0,35.7,28.6,04.5,0000.0,0000.59,0002.46,0000.37
2021-12-12 21:38:00,,0819.8,4.99,0.00,26.9,26.1,00.0,35.7,28.6,04.5,0000.0,0000.61,0002.60,0000.37
2021-12-12 21:39:00,,0819.6,5.01,0.00,26.9,26.1,00.0,35.7,28.7,04.5,0000.0,0000.61,0002.58,0000.36
2021-12-12 21:40:00,,0819.8,4.99,0.00,26.9,26.1,00.0,35.7,28.7,04.5,0000.0,0000.60,0002.52,0000.36
2021-12-12 21:41:00,,0819.8,5.01,0.00,26.9,26.1,00.0,35.8,28.7,04.5,0000.0,0000.59,0002.50,0000.36
2021-12-12 21:42:00,,0819.8,4.98,0.00,26.9,26.1,00.0,35.8,28.7,04.6,0000.0,0000.58,0002.48,0000.36
2021-12-12 21:43:00,,0819.8,5.02,0.00,26.9,26.1,00.0,35.8,28.7,04.5,0000.0,0000.57,0002.46,0000.36
2021-12-12 21:44:00,,0819.8,4.98,0.00,26.9,26.1,00.0,35.8,28.7,04.5,0000.0,0000.58,0002.45,0000.36
2021-12-12 21:45:00,,0819.6,5.02,0.00,26.9,26.1,00.0,35.8,28.7,04.5,0000.0,0000.58,0002.46,0000.37
2021-12-12 21:46:00,,0819.7,4.99,0.00,26.9,26.1,00.0,35.8,28.7,04.5,0000.0,0000.58,0002.40,0000.37
2021-12-12 21:47:00,,0819.7,4.99,0.00,26.9,26.1,00.0,35.8,28.7,04.5,0000.0,0000.55,0001.19,0000.36
2021-12-12 21:48:00,,0819.7,5.02,0.00,26.9,26.1,00.0,35.8,28.7,04.6,0000.0,0000.56,0001.28,0000.37
2021-12-12 21:49:00,,0819.8,4.99,0.00,26.9,26.1,00.0,35.8,28.7,04.6,0000.0,0000.56,0001.17,0000.37
2021-12-12 21:50:00,,0819.9,5.00,0.00,26.9,26.1,00.0,35.8,28.7,04.6,0000.0,0000.56,0001.18,0000.37
2021-12-12 21:51:00,,0819.8,5.00,0.00,26.9,26.0,00.0,35.8,28.7,04.5,0000.0,0000.56,0001.18,0000.37
2021-12-12 21:52:00,,0819.9,5.01,0.00,26.9,26.0,00.0,35.8,28.6,04.6,0000.0,0000.57,0001.21,0000.37
2021-12-12 21:53:00,,0819.9,5.00,0.00,26.9,26.0,00.0,35.8,28.6,04.6,0000.0,0000.59,0001.33,0000.37
2021-12-12 21:54:00,,0820.0,5.00,0.00,26.9,26.0,00.0,35.8,28.6,04.6,0000.0,0000.57,0001.31,0000.37
2021-12-12 21:55:00,,0819.9,5.01,0.00,26.9,26.0,00.0,35.8,28.6,04.6,0000.0,0000.58,0001.38,0000.37
2021-12-12 21:56:00,,0819.9,4.99,0.00,26.9,26.0,00.0,35.8,28.6,04.6,0000.0,0000.57,0001.36,0000.37
2021-12-12 21:57:00,,0819.9,5.02,0.00,26.9,26.0,00.0,35.8,28.6,04.6,0000.0,0000.57,0001.34,0000.37
2021-12-12 21:58:00,,0819.9,4.98,0.00,26.9,26.0,00.0,35.8,28.6,04.6,0000.0,0000.56,0001.10,0000.37
2021-12-12 21:59:00,,0819.9,5.01,0.00,26.9,26.0,00.0,35.8,28.6,04.6,0000.0,0000.57,0001.07,0000.37
